Regional Weather Roundup
Issued by NWS

Home | Current Version | Previous Version | Graphics & Text | Print | Product List | Glossary On
Versions: 1 2 3 4 5 6 7 8 9 10 11 12 13 14 15 16 17 18 19 20 21 22 23 24 25 26 27 28 29 30 31 32 33 34 35 36 37 38 39 40 41 42 43 44 45 46 47 48 49 50
076
ASUS44 KJAN 282103
RWRMS

MISSISSIPPI HOURLY WEATHER ROUNDUP
NATIONAL WEATHER SERVICE JACKSON MS
300 PM CST FRI NOV 28 2014

NOTE: "FAIR: INDICATES FEW OR NO CLOUDS BELOW 12,000 FEET WITH NO
SIGNIFICANT WEATHER AND/OR OBSTRUCTIONS TO VISIBILITY.

MSZ001>002-007>008-010>013-018>021-025>028-034>036-282200-
NORTHWEST MISSISSIPPI

CITY           SKY/WX    TMP DP  RH WIND       PRES   REMARKS
CLARKSDALE     FAIR      54  32  43 S14       30.22F
CLEVELAND      FAIR      55  36  49 S16       30.22F
GREENWOOD      SUNNY     60  23  24 S9        30.24F
GREENVILLE     SUNNY     58  30  34 S13       30.21F
GRENADA        FAIR      57  27  30 S8        30.24F
OLIVE BRANCH   SUNNY     54  28  37 S15       30.20F
OXFORD         FAIR      54  25  32 S9        30.24F
TUNICA         CLEAR     54  32  43 S15       30.21F
$$

MSZ003>006-009-014>017-022>024-029>033-037>039-282200-
NORTHEAST MISSISSIPPI

CITY           SKY/WX    TMP DP  RH WIND       PRES   REMARKS
COLUMBUS AFB   NOT AVBL
CORINTH        FAIR      52  27  37 S13       30.22F
GOLDN TRIANGLE SUNNY     52  27  37 S9        30.28F
STARKVILLE     FAIR      54  28  37 S6        30.27F
TUPELO         SUNNY     51  28  41 MISG      30.26F
$$

MSZ040-058-282200-
CENTRAL MISSISSIPPI

CITY           SKY/WX    TMP DP  RH WIND       PRES   REMARKS
JACKSON INTL   SUNNY     60  22  23 S10       30.26F
JACKSON HAWKNS SUNNY     59  23  25 S9        30.26F
MERIDIAN KEY   SUNNY     57  22  25 S7        30.28F
MERIDIAN NAS   SUNNY     56  22  26 SE5       30.29F
RAYMOND        FAIR      63  57  82 S7        30.26F
VICKSBURG      SUNNY     61  24  24 S12       30.25F
$$

MSZ059>079-282200-
SOUTH MISSISSIPPI

CITY           SKY/WX    TMP DP  RH WIND       PRES   REMARKS
BROOKHAVEN     FAIR      61  28  29 S8        30.29S
HATTIESBURG    SUNNY     60  27  28 E5        30.30F
MCCOMB         SUNNY     59  26  28 S8        30.28F
NATCHEZ        SUNNY     63  28  27 S7        30.26F
PINE BELT      SUNNY     57  25  28 SE5       30.30F
$$

MSZ080>082-282200-
COASTAL MISSISSIPPI

CITY           SKY/WX    TMP DP  RH WIND       PRES   REMARKS
BAY ST LOUIS   SUNNY     57  25  28 CALM      30.32F
BILOXI         SUNNY     55  36  48 S6        30.31F
PASCAGOULA     SUNNY     59  35  40 SW7       30.31F
GULFPORT       SUNNY     54  35  48 SE7       30.31F
$$



USA.gov is the U.S. government's official web portal to all federal, state and local government web resources and services.